Weather History for Syracuse, NY

Change the Weather History Date:

Tuesday, August 14, 2012

  Actual Average Record
Temperature  
Mean Temperature 74 °F 70 °F  
Max Temperature 82 °F 81 °F 101 °F (2002)
Min Temperature 65 °F 60 °F 48 °F (1946)
Degree Days  
Heating Degree Days 0 1  
Month to date heating degree days 0 1  
Since 1 June heating degree days 43 70  
Since 1 July heating degree days 0 9  
Cooling Degree Days 9 6  
Month to date cooling degree days 156 84  
Year to date cooling degree days 772 430  
Since 1 June cooling degree days 677 400  
Growing Degree Days 23 (Base 50)    
Moisture  
Dew Point 64 °F    
Average Humidity 76    
Maximum Humidity 93    
Minimum Humidity 58    
Precipitation  
Precipitation 0.49 in 0.12 in 1.55 in (1929)
Month to date precipitation 1.42 1.60  
Year to date precipitation 18.18 22.62  
Snow  
Snow 0.00 in 0.00 in 0.00 in (2002)
Month to date snowfall 0.0 0.0  
Since 1 June snowfall 0.0 0.0  
Since 1 July snowfall 0.0 0.0  
Snow Depth 0.00 in    
Sea Level Pressure  
Sea Level Pressure 29.88 in    
Wind  
Wind Speed 4 mph (NNE)    
Max Wind Speed 28 mph    
Max Gust Speed 36 mph    
Visibility 8 miles    
Events Fog , Rain , Thunderstorm    
T = Trace of Precipitation, MM = Missing Value Source: NWS Daily Summary

Daily Weather History Graph

Daily Weather History Graph

Search for Another Location

Airport:

Trip Planner

Search our weather history database for the weather conditions in past years. The results will help you decide how hot, cold, wet, or windy it might be!

Date:

Astronomy

Aug. 14, 2012 Rise Set
Actual Time 6:09 AM EDT 8:07 PM EDT
Civil Twilight 5:38 AM EDT 8:38 PM EDT
Nautical Twilight 5:00 AM EDT 9:15 PM EDT
Astronomical Twilight 4:19 AM EDT 9:56 PM EDT
Moon 3:02 AM EDT (8/14) 6:02 PM EDT (8/14)
Length of Visible Light 14h 59m
Length of Day
13h 58m
Waning Crescent, 10% of the Moon is Illuminated
Aug 14
Waning Crescent
Aug 17
New
Aug 24
First Quarter
Aug 31
Full
Sep 8
Last Quarter

Hourly Weather History & Observations

Time (EDT) Temp. Heat Index Dew Point Humidity Pressure Visibility Wind Dir Wind Speed Gust Speed Precip Events Conditions
12:54 AM 68.0 °F - 61.0 °F 78% 29.94 in 10.0 mi SE 4.6 mph - N/A   Overcast
1:54 AM 66.9 °F - 60.1 °F 79% 29.93 in 10.0 mi ESE 4.6 mph - N/A   Overcast
2:54 AM 66.0 °F - 60.1 °F 81% 29.92 in 10.0 mi East 5.8 mph - N/A   Overcast
3:54 AM 64.9 °F - 61.0 °F 87% 29.91 in 10.0 mi East 3.5 mph - N/A   Overcast
4:54 AM 66.9 °F - 61.0 °F 81% 29.92 in 10.0 mi NW 3.5 mph - 0.00 in Rain Light Rain
5:54 AM 64.9 °F - 62.1 °F 90% 29.92 in 10.0 mi ENE 3.5 mph - 0.00 in   Overcast
6:54 AM 66.9 °F - 62.1 °F 84% 29.93 in 10.0 mi SE 4.6 mph - N/A   Overcast
7:54 AM 66.9 °F - 62.1 °F 84% 29.93 in 10.0 mi ESE 3.5 mph - N/A   Overcast
8:54 AM 69.1 °F - 62.1 °F 78% 29.93 in 10.0 mi South 4.6 mph - N/A   Overcast
9:54 AM 71.1 °F - 62.1 °F 73% 29.92 in 10.0 mi Calm Calm - N/A   Overcast
10:54 AM 72.0 °F - 64.9 °F 78% 29.92 in 10.0 mi Calm Calm - N/A   Overcast
11:54 AM 75.0 °F - 63.0 °F 66% 29.91 in 10.0 mi Calm Calm - N/A   Overcast
12:54 PM 77.0 °F - 64.0 °F 64% 29.89 in 10.0 mi Variable 3.5 mph - N/A   Overcast
1:54 PM 77.0 °F - 66.0 °F 69% 29.86 in 10.0 mi NE 10.4 mph - N/A   Overcast
2:54 PM 79.0 °F - 66.0 °F 64% 29.85 in 10.0 mi NNE 8.1 mph - N/A   Mostly Cloudy
3:54 PM 81.0 °F 82.7 °F 64.9 °F 58% 29.83 in 10.0 mi NNE 6.9 mph - N/A   Mostly Cloudy
4:54 PM 80.1 °F 82.1 °F 66.0 °F 62% 29.81 in 10.0 mi NE 5.8 mph - N/A   Mostly Cloudy
5:54 PM 78.1 °F - 64.0 °F 62% 29.80 in 10.0 mi NNE 4.6 mph - N/A   Overcast
6:54 PM 78.1 °F - 63.0 °F 60% 29.81 in 10.0 mi South 4.6 mph - 0.00 in Rain Light Rain
7:15 PM 69.8 °F - 66.2 °F 88% 29.86 in 3.0 mi West 16.1 mph 26.5 mph 0.01 in Rain , Thunderstorm Thunderstorms and Rain
7:20 PM 68.0 °F - 66.2 °F 94% 29.87 in 1.5 mi West 26.5 mph 35.7 mph 0.06 in Rain , Thunderstorm Heavy Thunderstorms and Rain
7:25 PM 68.0 °F - 66.2 °F 94% 29.85 in 0.5 mi NW 21.9 mph 35.7 mph 0.11 in Fog , Rain , Thunderstorm Heavy Thunderstorms and Rain
7:31 PM 66.2 °F - 66.2 °F 100% 29.86 in 2.0 mi WNW 13.8 mph 31.1 mph 0.38 in Rain , Thunderstorm Heavy Thunderstorms and Rain
7:42 PM 66.2 °F - 64.4 °F 94% 29.86 in 2.0 mi NNW 8.1 mph - 0.44 in Rain , Thunderstorm Thunderstorms and Rain
7:47 PM 66.2 °F - 64.4 °F 94% 29.86 in 3.0 mi NNW 9.2 mph - 0.45 in Rain , Thunderstorm Light Thunderstorms and Rain
7:54 PM 66.9 °F - 64.9 °F 93% 29.85 in 5.0 mi North 6.9 mph - 0.46 in Rain , Thunderstorm Light Thunderstorms and Rain
8:12 PM 66.2 °F - 64.4 °F 94% 29.85 in 9.0 mi NNE 3.5 mph - 0.01 in Rain Light Rain
8:54 PM 66.9 °F - 64.9 °F 93% 29.86 in 10.0 mi ESE 3.5 mph - 0.03 in Rain Light Rain
9:54 PM 66.9 °F - 66.0 °F 97% 29.86 in 10.0 mi Calm Calm - 0.00 in   Overcast
10:54 PM 66.9 °F - 64.9 °F 93% 29.86 in 9.0 mi Calm Calm - N/A Fog Patches of Fog
10:56 PM 68.0 °F - 66.2 °F 94% 29.87 in 9.0 mi Calm Calm - N/A Fog Patches of Fog
11:01 PM 68.0 °F - 66.2 °F 94% 29.87 in 8.0 mi Calm Calm - N/A Fog Patches of Fog
11:12 PM 66.2 °F - 64.4 °F 94% 29.88 in 5.0 mi NW 5.8 mph - N/A   Overcast
11:27 PM 66.2 °F - 64.4 °F 94% 29.88 in 6.0 mi NW 6.9 mph - N/A   Mostly Cloudy
11:35 PM 66.2 °F - 64.4 °F 94% 29.88 in 6.0 mi NW 3.5 mph - N/A   Scattered Clouds
11:54 PM 66.0 °F - 64.9 °F 96% 29.86 in 6.0 mi NW 3.5 mph - N/A   Mostly Cloudy